Volver al catálogo

STARLINK-3189

ActivoComunicacionesVLEO
NORAD 51464·PAYLOAD·🇺🇸 United States

Lanzado Feb 3, 2022 desde Cape Canaveral Space Force Station

Loading…

Próximos Pases (próximas 24 horas)

TLE

ActualizadoSource: CelesTrak SupGP

Época: Sep 14, 2026, 20:08 UTC

1 51464C 22010J   26257.83937500 -.00035246  00000+0 -10413-2 0  2571
2 51464  53.1590 142.5401 0001297  87.6068 352.0561 15.34409999    12

Sigue STARLINK-3189 en tiempo real con AllMySat

Download on the App Store